Miscellaneous Local Product
Issued by NWS North Platte, NE

Home | Current Version | Previous Version | Text Only | Print | Product List | Glossary On
Versions: 1 2 3 4 5 6 7 8 9 10 11 12 13 14 15 16 17 18 19 20 21 22 23 24 25 26 27 28 29 30 31 32 33 34 35 36 37 38 39 40 41 42 43 44 45 46 47 48 49 50
000
AXUS43 KLBF 181810
MISLBF


WESTERN AND NORTH CENTRAL NEBRASKA HOURLY WEATHER ROUNDUP
NATIONAL WEATHER SERVICE NORTH PLATTE NE
100 PM CDT THU SEP 18 2014

***STATIONS NOT REPORTING VARIABLES SUCH AS SKY/WEATHER OR
PRESSURE ARE PROVIDED BY THE NEBRASKA DEPARTMENT OF
ROADS...RAWS...AND APRS NETWORKS...AND ARE NOT UNDER
NATIONAL WEATHER SERVICE QUALITY CONTROL***

...OBSERVATIONS IN AND NEAR THE EASTERN PANHANDLE OF NEBRASKA...

CITY           SKY/WX    TMP DP  RH WIND       PRES   REMARKS
PINE RIDGE     SUNNY     80  60  50 S13       29.88F
CHADRON        SUNNY     82  57  42 S3        29.86F
ALLIANCE       SUNNY     78  58  49 S13       29.94F
SIDNEY         SUNNY     80  56  43 S12       29.99F
WHITECLAY        N/A     79  58  47 S10         N/A
RUSHVILLE        N/A     85  53  33 SW20        N/A
LISCO            N/A     84  59  42 E9          N/A
BIG SPRINGS      N/A     68  65  89 S8          N/A
$$

...OBSERVATIONS IN NORTH CENTRAL NEBRASKA...

CITY           SKY/WX    TMP DP  RH WIND       PRES   REMARKS
VALENTINE      PTSUNNY   77  62  59 S20G25    29.91F
AINSWORTH      SUNNY     74  56  53 S22       29.95F
O`NEILL        CLOUDY    70  62  75 S18G25    29.99F
ORD            MOSUNNY   72  59  63 SE15      29.97F
BROKEN BOW     SUNNY     76  59  55 S16       29.98F
SPRINGVIEW       N/A     75  60  58 SW10G18     N/A
ROSE             N/A     76  63  64 E21         N/A
NEWPORT          N/A     73  61  66 S16         N/A
COMSTOCK         N/A     81  63  54 S15         N/A
CHAMBERS         N/A     73  62  68 S10         N/A
$$

...OBSERVATIONS IN SOUTHWEST NEBRASKA AND FAR NORTHEAST COLORADO...

CITY           SKY/WX    TMP DP  RH WIND       PRES   REMARKS
WRAY           FAIR      79  61  54 SE8       29.98F
HOLYOKE        CLOUDY    73  64  73 S9        29.99F
IMPERIAL       CLOUDY    67  62  84 S13       29.98F
OGALLALA       CLOUDY    69  64  85 S10       29.98F
NORTH PLATTE   CLOUDY    69  61  75 SE10      29.98S
MCCOOK         CLOUDY    64  63  96 E8        30.00R FOG
LEXINGTON      CLOUDY    68  63  82 S12       29.99F
PAXTON           N/A     65  64  96 SE9         N/A
SUTHERLAND       N/A     62  60  93 SE9         N/A
BRADY            N/A     71  62  74 CALM        N/A
GOTHENBURG       N/A     69  58  68 SE8         N/A
CALLAWAY         N/A     72  62  71 S13         N/A
$$

...SOME WEATHER OBSERVATIONS FROM AROUND THE REGION...

CITY           SKY/WX    TMP DP  RH WIND       PRES   REMARKS
DENVER         MOSUNNY   83  40  21 VRB3      30.05F
LARAMIE        SUNNY     77  35  21 S8        30.15F
CHEYENNE       SUNNY     84  31  14 SW9       30.07F
SCOTTSBLUFF    SUNNY     77  52  41 SE7       29.95F
RAPID CITY     SUNNY     78  56  46 SE9       29.84F
PIERRE         SUNNY     78  58  49 S22G31    29.84F
WINNER         FAIR      78  58  49 S18G28    29.89F
SIOUX FALLS    MOSUNNY   75  55  49 S17       30.01F
OMAHA          MOSUNNY   72  57  59 SE10      30.03F
GRAND ISLAND   SUNNY     75  60  59 SE14      30.00F
KANSAS CITY    CLOUDY    66  61  84 E10       30.03F
WICHITA        MOSUNNY   82  57  42 S20G26    29.99F
HAYS           CLOUDY    70  64  83 E8        29.96F
LIBERAL        SUNNY     88  57  35 S17       29.99F
GOODLAND       SUNNY     75  63  66 SE7       30.00F
$$



USA.gov is the U.S. government's official web portal to all federal, state and local government web resources and services.